SLLPSLCB

Guest
Details From SLLP - La Paz
To SLCB - JORGE WILSTERMAN
Flight Number -
Tags generated
Created
Modified
Stats Distance 129 nm / 238 km
Max Altitude 15,200 ft / 4,633 m
Waypoints 3
Social Downloads 1
Likes 0
Share VATSIM

Download

Looking for another format? Having issues loading an existing format? Contact us
Advertisement - Login to hide

Notes

Basic altitude profile: - Ascent Rate: 1500ft/min - Ascent Speed: 300kts - Cruise Altitude: 27000ft - Cruise Speed: 430kts - Descent Rate: 1800ft/min - Descent Speed: 250kts Options: - Use NATs: yes - Use PACOTS: yes - Use low airways: no - Use high airways: yes

Route

SLLP BELEN SLCB

ID Type Via Altitude Latitude Longitude Leg Dist Tot Dist Heading (true) Name
O SLLP APT - 0 ft / 0 m -16.50936˚ -68.19055˚ - 0 nm - La Paz
BELEN FIX - 15,200 ft / 4,633 m -16.99101˚ -67.41714˚ 53 nm 53 nm 123° / 123° -
O SLCB APT - 0 ft / 0 m -17.42039˚ -66.17717˚ 75 nm 128 nm 110° / 110° JORGE WILSTERMAN

Altitude Profile

Advertisement - Login to hide

SLLP

Details ICAO SLLP (LPB)
Name La Paz
Region Bolivia
Timezone America/La_Paz (UTC-4.0)
Stats Elevation 13,313 ft / 4,058 m (AMSL)
Location -16.509356° -68.190551°
Runways 2
Magnetic Variation 7.918° W

METAR

SLLP 171700Z 10009KT 050V180 9999 SCT023 SCT200 18/M00 Q1036 METAR SLVR 171700Z 35014G25KT 9999 FEW015 BKN020 BKN200 32/24 Q1007

Decode

TAF

TAF SLLP 171000Z 1712/1812 07006KT 9999 FEW017 TX18/1720Z TN03/1810Z BECMG 1715/1717 14012KT FEW020 FEW023CB BECMG 1723/1801 07004KT SCT015 TEMPO 1807/1811 3000E VCFG FEW002 SCT012

Decode

Departure Runways

ID Width Length Bearing (true) Bearing (mag) Surface Threshold Offset Overrun Length
10 151 ft / 46 m 13,106 ft / 3,995 m 91.90° 99.82° Concrete 0 ft / 0 m 200 ft / 61 m
10L 300 ft / 91 m 6,718 ft / 2,048 m 97.72° 105.64° Dirt 0 ft / 0 m 0 ft / 0 m
28 151 ft / 46 m 13,106 ft / 3,995 m 271.89° 279.81° Concrete 0 ft / 0 m 0 ft / 0 m
28R 300 ft / 91 m 6,718 ft / 2,048 m 277.71° 285.63° Dirt 0 ft / 0 m 0 ft / 0 m

SLCB

Details ICAO SLCB (CBB)
Name JORGE WILSTERMAN
Region Bolivia
Timezone America/La_Paz (UTC-4.0)
Stats Elevation 8,360 ft / 2,548 m (AMSL)
Location -17.420390° -66.177166°
Runways 2
Magnetic Variation 9.395° W

METAR

SLCB 171700Z VRB02KT 9999 FEW033 SCT200 30/04 Q1020

Decode

TAF

TAF SLCB 171000Z 1712/1812 00000KT 9999 NSC TX32/1719Z TN13/1810Z BECMG 1714/1716 27010KT FEW033 BECMG 1721/1723 13015KT BECMG 1802/1804 11005KT

Decode

Destination Runways

ID Width Length Bearing (true) Bearing (mag) Surface Threshold Offset Overrun Length
04 148 ft / 45 m 8,716 ft / 2,657 m 37.26° 46.65° Asphalt 0 ft / 0 m 0 ft / 0 m
14 148 ft / 45 m 12,480 ft / 3,804 m 132.10° 141.49° Asphalt 328 ft / 100 m 199 ft / 61 m
22 148 ft / 45 m 8,716 ft / 2,657 m 217.25° 226.64° Asphalt 732 ft / 223 m 0 ft / 0 m
32 148 ft / 45 m 12,480 ft / 3,804 m 312.09° 321.48° Asphalt 984 ft / 300 m 201 ft / 61 m

Approach Navaids

Runway Type Ident Frequency Range Bearing (true) Bearing (mag) Slope Elevation
32 Localiser ILCO 110.50 MHz 18 nm / 33 km 311.99° 321.38° - 8,360 ft / 2,548 m (AMSL)
32 Glidescope ILCO 110.50 MHz 10 nm / 19 km 312.10° 321.49° 3.30° 8,360 ft / 2,548 m (AMSL)
32 DME ILCO 110.50 MHz 18 nm / 33 km - - - 8,360 ft / 2,548 m (AMSL)

Popular Alternatives